Weather History for KVTA - January, 2013

Change the Weather History Date:

Tuesday, January 15, 2013

  Actual Average Record
Temperature  
Mean Temperature 29 °F -  
Max Temperature 33 °F 33 °F 34 °F (2015)
Min Temperature 25 °F 16 °F 12 °F (2015)
Degree Days  
Heating Degree Days 36    
Moisture  
Dew Point 21 °F    
Average Humidity 71    
Maximum Humidity 81    
Minimum Humidity 61    
Precipitation  
Precipitation 0.00 in - - ()
Sea Level Pressure  
Sea Level Pressure 30.30 in    
Wind  
Wind Speed 5 mph (NE)    
Max Wind Speed 14 mph    
Max Gust Speed -    
Visibility 10 miles    
Events      
Averages and records for this station are not official NWS values.
T = Trace of Precipitation, MM = Missing Value Source: NWS Daily Summary

Daily Weather History Graph

Daily Weather History Graph

Search for Another Location

Airport or City:

Trip Planner

Search our weather history database for the weather conditions in past years. The results will help you decide how hot, cold, wet, or windy it might be!

Date:

Astronomy

Jan. 15, 2013 Rise Set
Actual Time 7:49 AM EST 5:29 PM EST
Civil Twilight 7:20 AM EST 5:59 PM EST
Nautical Twilight 6:46 AM EST 6:32 PM EST
Astronomical Twilight 6:14 AM EST 7:04 PM EST
Moon 9:55 AM EST (1/15) 10:17 PM EST (1/15)
Length of Visible Light 10h 39m
Length of Day
9h 39m
Waxing Crescent, 19% of the Moon is Illuminated
Jan 15
Waxing Crescent
Jan 18
First Quarter
Jan 26
Full
Feb 3
Last Quarter
Feb 10
New

Hourly Weather History & Observations

Time (EST) Temp. Windchill Dew Point Humidity Pressure Visibility Wind Dir Wind Speed Gust Speed Precip Events Conditions
12:54 AM 27.0 °F 20.5 °F 21.9 °F 81% 30.34 in 9.0 mi North 5.8 mph - N/A   Clear
1:54 AM 27.0 °F 21.6 °F 21.0 °F 78% 30.35 in 10.0 mi North 4.6 mph - N/A   Clear
2:54 AM 27.0 °F 21.6 °F 19.9 °F 75% 30.35 in 10.0 mi NNE 4.6 mph - N/A   Clear
3:54 AM 26.1 °F 21.9 °F 21.0 °F 81% 30.35 in 9.0 mi Variable 3.5 mph - N/A   Clear
4:54 AM 25.0 °F 20.7 °F 19.9 °F 81% 30.35 in 9.0 mi NNE 3.5 mph - N/A   Clear
5:54 AM 25.0 °F 20.7 °F 19.9 °F 81% 30.36 in 9.0 mi NNE 3.5 mph - N/A   Clear
6:54 AM 25.0 °F 19.3 °F 19.9 °F 81% 30.39 in 9.0 mi NNE 4.6 mph - N/A   Clear
7:54 AM 25.0 °F 19.3 °F 19.9 °F 81% 30.39 in 9.0 mi North 4.6 mph - N/A   Clear
8:54 AM 26.1 °F - 19.9 °F 78% 30.40 in 8.0 mi Calm Calm - N/A   Clear
9:54 AM 28.9 °F 21.9 °F 21.0 °F 72% 30.40 in 10.0 mi ENE 6.9 mph - N/A   Clear
10:54 AM 30.0 °F 19.5 °F 21.0 °F 69% 30.37 in 10.0 mi East 13.8 mph - N/A   Partly Cloudy
11:52 AM 30.2 °F 21.9 °F 21.2 °F 69% 30.32 in 10.0 mi ENE 9.2 mph - N/A   Mostly Cloudy
11:54 AM 30.9 °F 24.3 °F 21.9 °F 69% 30.36 in 10.0 mi ENE 6.9 mph - N/A   Mostly Cloudy
12:12 PM 30.2 °F 23.4 °F 21.2 °F 69% 30.32 in 10.0 mi East 6.9 mph - N/A   Scattered Clouds
12:54 PM 32.0 °F 27.5 °F 21.0 °F 64% 30.32 in 10.0 mi NE 4.6 mph - N/A   Clear
1:54 PM 33.1 °F 28.7 °F 21.9 °F 64% 30.28 in 10.0 mi Variable 4.6 mph - N/A   Clear
2:54 PM 33.1 °F 26.1 °F 21.0 °F 61% 30.25 in 10.0 mi NNE 8.1 mph - N/A   Clear
3:54 PM 33.1 °F 26.9 °F 21.0 °F 61% 30.26 in 10.0 mi ENE 6.9 mph - N/A   Clear
4:54 PM 33.1 °F 30.0 °F 21.9 °F 64% 30.27 in 10.0 mi Variable 3.5 mph - N/A   Clear
5:54 PM 32.0 °F 27.5 °F 21.9 °F 66% 30.26 in 10.0 mi NNE 4.6 mph - N/A   Clear
6:54 PM 32.0 °F 28.7 °F 21.9 °F 66% 30.23 in 10.0 mi NE 3.5 mph - N/A   Clear
7:54 PM 32.0 °F 25.6 °F 21.9 °F 66% 30.22 in 10.0 mi North 6.9 mph - N/A   Clear
8:54 PM 32.0 °F 25.6 °F 23.0 °F 69% 30.17 in 10.0 mi ENE 6.9 mph - N/A   Clear
9:54 PM 32.0 °F 27.5 °F 21.9 °F 66% 30.16 in 10.0 mi ENE 4.6 mph - N/A   Partly Cloudy
10:54 PM 32.0 °F 26.4 °F 21.9 °F 66% 30.11 in 10.0 mi ENE 5.8 mph - N/A   Overcast
11:54 PM 32.0 °F 27.5 °F 21.9 °F 66% 30.10 in 10.0 mi North 4.6 mph - N/A   Overcast